This demonstration page uses our WeatherBlox Daily Observations layout. Learn more.

Left ArrowRight Arrow

Hourly Observations for May 12, 2019

Temp ( °F °C ) Dew Point ( °F °C ) Humidity (%) Winds ( mph kmh ) Pressure ( in mb ) Visibility ( mi km ) Precip ( " mm )
12:15 am 00:15 Cloudy 43 6 43 6 100 100 NE 12 19 29.86 1011 10 16.0934 N/A
12:35 am 00:35 Cloudy 43 6 43 6 100 100 NE 17 28 29.86 1011 10 16.0934 N/A
12:55 am 00:55 Cloudy 43 6 43 6 100 100 NE 14 22 29.86 1011 10 16.0934 N/A
1:15 am 01:15 Cloudy 43 6 43 6 100 100 NE 14 22 29.84 1011 10 16.0934 N/A
1:36 am 01:36 Cloudy 43 6 43 6 100 100 NE 14 22 29.84 1011 10 16.0934 N/A
1:55 am 01:55 Cloudy 43 6 43 6 100 100 NE 12 19 29.83 1010 5 8.0467 N/A
2:15 am 02:15 Cloudy 43 6 43 6 100 100 NE 12 19 29.82 1010 5 8.0467 N/A
2:35 am 02:35 Cloudy 43 6 43 6 100 100 NNE 13 20 29.82 1010 5 8.0467 N/A
2:55 am 02:55 Cloudy 43 6 43 6 100 100 NE 12 19 29.81 1010 5 8.0467 N/A
3:16 am 03:16 Cloudy 43 6 43 6 100 100 NE 10 17 29.81 1010 5 8.0467 N/A
3:35 am 03:35 Cloudy 43 6 43 6 100 100 NNE 10 17 29.81 1010 5 8.0467 N/A
3:55 am 03:55 Cloudy 43 6 43 6 100 100 NE 10 17 29.81 1010 4 6.43736 N/A
4:15 am 04:15 Cloudy 43 6 43 6 100 100 NNE 12 19 29.8 1009 4 6.43736 N/A
4:35 am 04:35 Cloudy 43 6 43 6 100 100 NE 12 19 29.8 1009 5 8.0467 N/A
4:55 am 04:55 Cloudy 43 6 43 6 100 100 NE 10 17 29.8 1009 5 8.0467 N/A
5:15 am 05:15 Cloudy 43 6 43 6 100 100 NE 10 17 29.8 1009 5 8.0467 N/A
5:35 am 05:35 Cloudy 43 6 43 6 100 100 NE 8 13 29.79 1009 5 8.0467 N/A
5:55 am 05:55 Cloudy 43 6 43 6 100 100 NNE 8 13 29.79 1009 5 8.0467 N/A
6:15 am 06:15 Cloudy 43 6 43 6 100 100 NE 8 13 29.8 1009 5 8.0467 N/A
6:35 am 06:35 Cloudy 43 6 43 6 100 100 NE 8 13 29.8 1009 4 6.43736 N/A
6:55 am 06:55 Cloudy 43 6 43 6 100 100 NE 6 9 29.8 1009 2.5 4.02335 N/A
7:15 am 07:15 Cloudy 43 6 43 6 100 100 NNE 6 9 29.81 1010 1.75 2.816345 N/A
7:35 am 07:35 Cloudy 45 7 45 7 100 100 N 7 11 29.82 1010 1.25 2.011675 N/A
7:55 am 07:55 Cloudy 45 7 45 7 100 100 N 8 13 29.81 1009 1.25 2.011675 N/A
8:16 am 08:16 Cloudy 45 7 45 7 100 100 N 8 13 29.82 1010 1.75 2.816345 N/A
8:35 am 08:35 Cloudy 45 7 45 7 100 100 NNE 9 15 29.82 1010 2 3.21868 N/A
8:55 am 08:55 Cloudy 45 7 45 7 100 100 NE 10 17 29.81 1009 5 8.0467 N/A
9:15 am 09:15 Cloudy 45 7 45 7 100 100 NNE 8 13 29.82 1010 3 4.82802 N/A
9:35 am 09:35 Cloudy 45 7 45 7 100 100 NNE 9 15 29.82 1010 5 8.0467 N/A
9:56 am 09:56 Cloudy 45 7 45 7 100 100 NNE 8 13 29.82 1010 4 6.43736 N/A
10:15 am 10:15 Cloudy 45 7 45 7 100 100 N 8 13 29.82 1010 3 4.82802 N/A
10:35 am 10:35 Cloudy 45 7 45 7 100 100 NNE 9 15 29.81 1009 2.5 4.02335 N/A
10:55 am 10:55 Cloudy 45 7 45 7 100 100 N 8 13 29.81 1009 2.5 4.02335 N/A
11:15 am 11:15 Cloudy 45 7 45 7 100 100 NNE 9 15 29.81 1009 4 6.43736 N/A
11:35 am 11:35 Cloudy 46 8 46 8 100 100 N 7 11 29.81 1009 5 8.0467 N/A
11:55 am 11:55 Cloudy 46 8 46 8 100 100 N 3 6 29.82 1010 4 6.43736 N/A
12:15 pm 12:15 Cloudy 46 8 46 8 100 100 N 6 9 29.82 1010 4 6.43736 N/A
12:35 pm 12:35 Cloudy 46 8 46 8 100 100 NE 6 9 29.82 1010 5 8.0467 N/A
12:56 pm 12:56 Cloudy 46 8 46 8 100 100 NNE 5 7 29.82 1010 7 11.26538 N/A
1:15 pm 13:15 Cloudy 46 8 46 8 100 100 N N/A 29.81 1009 10 16.0934 N/A
1:35 pm 13:35 Cloudy 46 8 46 8 100 100 N 6 9 29.81 1009 10 16.0934 N/A
1:55 pm 13:55 Cloudy 48 9 48 9 100 100 NNW 3 6 29.8 1009 10 16.0934 N/A
2:16 pm 14:16 Cloudy 48 9 48 9 100 100 N N/A 29.79 1009 10 16.0934 N/A
2:35 pm 14:35 Cloudy 46 8 46 8 100 100 NNW 5 7 29.81 1009 10 16.0934 N/A
2:55 pm 14:55 Cloudy 46 8 46 8 100 100 NNW 5 7 29.81 1009 10 16.0934 N/A
3:15 pm 15:15 Cloudy 46 8 46 8 100 100 N 3 6 29.81 1009 10 16.0934 N/A
3:35 pm 15:35 Cloudy 46 8 46 8 100 100 NNE 5 7 29.8 1009 4 6.43736 N/A
3:55 pm 15:55 Cloudy 46 8 46 8 100 100 N 5 7 29.8 1009 5 8.0467 N/A
4:15 pm 16:15 Cloudy 46 8 46 8 100 100 NNE 3 6 29.8 1009 10 16.0934 N/A
4:35 pm 16:35 Cloudy 48 9 48 9 100 100 N N/A 29.78 1009 10 16.0934 N/A
4:55 pm 16:55 Cloudy 48 9 48 9 100 100 NE 3 6 29.78 1009 10 16.0934 N/A
5:15 pm 17:15 Cloudy 48 9 48 9 100 100 N N/A 29.78 1009 10 16.0934 N/A
5:35 pm 17:35 Cloudy 48 9 48 9 100 100 NW 3 6 29.79 1009 7 11.26538 N/A
5:55 pm 17:55 Cloudy 46 8 46 8 100 100 NNW 3 6 29.8 1009 7 11.26538 N/A
6:15 pm 18:15 Cloudy 46 8 46 8 100 100 NNW 3 6 29.79 1009 5 8.0467 N/A
6:35 pm 18:35 Cloudy 46 8 46 8 100 100 NW 3 6 29.8 1009 4 6.43736 N/A
6:55 pm 18:55 Cloudy 46 8 46 8 100 100 N N/A 29.79 1009 10 16.0934 N/A
7:15 pm 19:15 Cloudy 46 8 46 8 100 100 W 5 7 29.8 1009 7 11.26538 N/A
7:35 pm 19:35 Cloudy 46 8 46 8 100 100 W 6 9 29.8 1009 10 16.0934 N/A
7:56 pm 19:56 Cloudy 46 8 46 8 100 100 W 5 7 29.8 1009 5 8.0467 N/A
8:15 pm 20:15 Cloudy 46 8 46 8 100 100 WNW 3 6 29.79 1009 3 4.82802 N/A
8:36 pm 20:36 Cloudy 46 8 46 8 100 100 WNW 5 7 29.8 1009 7 11.26538 N/A
8:55 pm 20:55 Cloudy 46 8 46 8 100 100 WNW 6 9 29.8 1009 7 11.26538 N/A
9:16 pm 21:16 Cloudy 46 8 46 8 100 100 WNW 3 6 29.8 1009 5 8.0467 N/A
9:35 pm 21:35 Cloudy 46 8 46 8 100 100 WNW 5 7 29.8 1009 10 16.0934 N/A
9:55 pm 21:55 Cloudy 46 8 46 8 100 100 WNW 6 9 29.81 1009 10 16.0934 N/A
10:15 pm 22:15 Cloudy 46 8 46 8 100 100 WNW 6 9 29.81 1009 10 16.0934 N/A
10:35 pm 22:35 Cloudy 46 8 46 8 100 100 W 8 13 29.82 1010 4 6.43736 N/A
10:55 pm 22:55 Cloudy 46 8 46 8 100 100 WNW 8 13 29.82 1010 2.5 4.02335 N/A
11:15 pm 23:15 Cloudy 46 8 46 8 100 100 W 5 7 29.82 1010 3 4.82802 N/A
11:35 pm 23:35 Cloudy 46 8 46 8 100 100 W 8 13 29.82 1010 3 4.82802 N/A
11:55 pm 23:55 Cloudy 46 8 46 8 100 100 W 7 11 29.82 1010 4 6.43736 N/A

Powered by AerisWeather